Weather History for West Plains, MO

Change the Weather History Date:

Friday, April 12, 2013

  Actual Average Record
Temperature  
Mean Temperature 46 °F 56 °F  
Max Temperature 58 °F 69 °F 87 °F (1972)
Min Temperature 33 °F 44 °F 23 °F (1990)
Degree Days  
Heating Degree Days 19 9  
Month to date heating degree days 142 129  
Since 1 July heating degree days 4188 4139  
Cooling Degree Days 0 1  
Month to date cooling degree days 7 7  
Year to date cooling degree days 7 11  
Moisture  
Dew Point 30 °F    
Average Humidity 59    
Maximum Humidity 82    
Minimum Humidity 36    
Precipitation  
Precipitation 0.00 in 0.15 in 1.71 in (1952)
Month to date precipitation 1.92 1.63  
Year to date precipitation 12.99 11.48  
Sea Level Pressure  
Sea Level Pressure 29.90 in    
Wind  
Wind Speed 8 mph (West)    
Max Wind Speed 21 mph    
Max Gust Speed 25 mph    
Visibility 10 miles    
Events      
T = Trace of Precipitation, MM = Missing Value Source: NWS Daily Summary

Daily Weather History Graph

Daily Weather History Graph

Search for Another Location

Airport:

Trip Planner

Search our weather history database for the weather conditions in past years. The results will help you decide how hot, cold, wet, or windy it might be!

Date:

Astronomy

Apr. 12, 2013 Rise Set
Actual Time 6:37 AM CDT 7:39 PM CDT
Civil Twilight 6:10 AM CDT 8:06 PM CDT
Nautical Twilight 5:39 AM CDT 8:38 PM CDT
Astronomical Twilight 5:06 AM CDT 9:11 PM CDT
Moon 7:50 AM CDT (4/12) 10:07 PM CDT (4/12)
Length of Visible Light 13h 55m
Length of Day
13h 02m
Waxing Crescent, 5% of the Moon is Illuminated
Apr 12
Waxing Crescent
Apr 18
First Quarter
Apr 25
Full
May 2
Last Quarter
May 9
New

Hourly Weather History & Observations

Time (CDT) Temp. Windchill Dew Point Humidity Pressure Visibility Wind Dir Wind Speed Gust Speed Precip Events Conditions
12:53 AM 36.0 °F 32.1 °F 30.0 °F 79% 29.81 in 10.0 mi WSW 4.6 mph - N/A   Clear
1:53 AM 35.1 °F 31.0 °F 28.9 °F 78% 29.81 in 10.0 mi SW 4.6 mph - N/A   Clear
2:53 AM 34.0 °F 31.0 °F 28.9 °F 82% 29.79 in 10.0 mi WSW 3.5 mph - N/A   Clear
3:53 AM 34.0 °F 31.0 °F 28.9 °F 82% 29.80 in 10.0 mi SW 3.5 mph - N/A   Clear
4:53 AM 34.0 °F 29.8 °F 28.9 °F 82% 29.81 in 10.0 mi WSW 4.6 mph - N/A   Clear
5:53 AM 33.1 °F 28.7 °F 28.9 °F 85% 29.83 in 10.0 mi WSW 4.6 mph - N/A   Clear
6:53 AM 33.1 °F 27.7 °F 28.9 °F 85% 29.84 in 10.0 mi WSW 5.8 mph - N/A   Clear
7:53 AM 36.0 °F 31.1 °F 30.9 °F 82% 29.86 in 10.0 mi West 5.8 mph - N/A   Clear
8:53 AM 39.9 °F 32.5 °F 30.9 °F 70% 29.87 in 10.0 mi WNW 12.7 mph 20.7 mph N/A   Clear
9:53 AM 44.1 °F 37.1 °F 28.0 °F 53% 29.89 in 10.0 mi WNW 15.0 mph 25.3 mph N/A   Clear
10:53 AM 46.9 °F - 28.0 °F 48% 29.92 in 10.0 mi West 13.8 mph 24.2 mph N/A   Clear
11:53 AM 50.0 °F - 28.0 °F 43% 29.91 in 10.0 mi WNW 16.1 mph 23.0 mph N/A   Clear
12:53 PM 52.0 °F - 28.9 °F 41% 29.92 in 10.0 mi West 18.4 mph 25.3 mph N/A   Clear
1:53 PM 54.0 °F - 30.9 °F 41% 29.92 in 10.0 mi West 12.7 mph 23.0 mph N/A   Clear
2:53 PM 55.0 °F - 30.9 °F 40% 29.92 in 10.0 mi WNW 9.2 mph 19.6 mph N/A   Clear
3:53 PM 57.0 °F - 30.0 °F 36% 29.91 in 10.0 mi West 17.3 mph 24.2 mph N/A   Clear
4:53 PM 57.0 °F - 30.0 °F 36% 29.92 in 10.0 mi West 9.2 mph 18.4 mph N/A   Clear
5:53 PM 55.0 °F - 30.0 °F 38% 29.94 in 10.0 mi West 15.0 mph 21.9 mph N/A   Clear
6:53 PM 53.1 °F - 30.0 °F 41% 29.95 in 10.0 mi NW 8.1 mph - N/A   Clear
7:53 PM 48.9 °F - 30.9 °F 50% 29.96 in 10.0 mi NW 6.9 mph - N/A   Clear
8:53 PM 46.0 °F 43.9 °F 32.0 °F 58% 29.99 in 10.0 mi WNW 4.6 mph - N/A   Clear
9:53 PM 44.1 °F - 32.0 °F 63% 30.01 in 10.0 mi Calm Calm - N/A   Clear
10:53 PM 42.1 °F - 32.0 °F 67% 30.03 in 10.0 mi Calm Calm - N/A   Clear
11:53 PM 41.0 °F - 33.1 °F 73% 30.04 in 10.0 mi Calm Calm - N/A   Clear